Regional Weather Roundup
Issued by NWS

Home | Current Version | Previous Version | Graphics & Text | Print | Product List | Glossary On
Versions: 1 2 3 4 5 6 7 8 9 10 11 12 13 14 15 16 17 18 19 20 21 22 23 24 25 26 27 28 29 30 31 32 33 34 35 36 37 38 39 40 41 42 43 44 45 46 47 48 49 50
000
ASUS43 KBIS 042210
RWRND

NORTH DAKOTA REGIONAL WEATHER ROUNDUP
NATIONAL WEATHER SERVICE BISMARCK ND
500 PM CDT SAT JUL 04 2015

NOTE: "FAIR" INDICATES FEW OR NO CLOUDS BELOW 12,000 FEET WITH NO
SIGNIFICANT WEATHER AND/OR OBSTRUCTIONS TO VISIBILITY.


NDZ001>003-009>011-017-042300-
NORTHWEST NORTH DAKOTA

CITY           SKY/WX    TMP DP  RH WIND       PRES   REMARKS
WILLISTON      HVY RAIN  72  61  68 W14G38    29.73R
MINOT          SUNNY     85  66  53 S14G25    29.68F
MINOT AFB      MOSUNNY   86  74  66 S8        29.67F HX  94
$$

NDZ018>021-031>035-040>046-042300-
SOUTHWEST NORTH DAKOTA

CITY           SKY/WX    TMP DP  RH WIND       PRES   REMARKS
BISMARCK       MOSUNNY   89  71  55 S13       29.73F HX  95
DICKINSON      PTSUNNY   85  67  54 S9        29.73F
GARRISON         N/A     86  69  56 S12       29.71F HX  90
HETTINGER ARPT SUNNY     88  60  38 CALM      29.78F
$$

NDZ004>008-012>016-024-026-027-054-042300-
NORTHEAST NORTH DAKOTA

CITY           SKY/WX    TMP DP  RH WIND       PRES   REMARKS
GRAND FORKS    MOSUNNY   85  66  53 S16G24    29.74F
GRND FRKS AFB  SUNNY     85  67  55 S16       29.75F
DEVILS LAKE    SUNNY     88  64  45 S15G22    29.72F
$$

NDZ022-023-025-028>030-036>039-047>053-042300-
SOUTHEAST NORTH DAKOTA

CITY           SKY/WX    TMP DP  RH WIND       PRES   REMARKS
FARGO          MOSUNNY   84  67  56 S17G24    29.79F
JAMESTOWN      SUNNY     86  66  51 S16       29.76F
$$



USA.gov is the U.S. government's official web portal to all federal, state and local government web resources and services.